EUTELSAT 36D

Last updated on Thu Nov 21 2024 00:02:45 GMT+0000 (Coordinated Universal Time)

1 59346U 24059A 24325.27966064 .00000157 00000+0 00000+0 0 9994 2 59346 0.0130 294.9547 0000634 15.5622 245.8037 1.00271567 2399
UTC large
Height (km)
Speed (km/s)
/
Latitude / Longitude
Inclination (degrees)
Orbital Period (minutes)
Azimuth
Elevation
Range (km)
Doppler Factor

Next 0 passes for location: London (51.5072 / 0.1276)

Sorry there are no passes over London.